EDT,Max TemperatureF,Mean TemperatureF,Min TemperatureF,Max Dew PointF,MeanDew PointF,Min DewpointF,Max Humidity, Mean Humidity, Min Humidity, Max Sea Level PressureIn, Mean Sea Level PressureIn, Min Sea Level PressureIn, Max VisibilityMiles, Mean VisibilityMiles, Min VisibilityMiles, Max Wind SpeedMPH, Mean Wind SpeedMPH, Max Gust SpeedMPH,PrecipitationIn, CloudCover, Events, WindDirDegrees
2013-9-1,81,74,68,72,69,66,96,84,70,29.83,29.78,29.74,10,10,5,10,5,,0.00,6,,231
2013-9-2,81,72,61,70,66,55,100,86,48,29.89,29.81,29.74,10,5,2,12,4,18,0.03,4,Rain,272
2013-9-3,73,64,57,56,53,50,90,74,53,30.04,29.99,29.90,10,10,10,9,5,,0.00,5,,322
2013-9-4,81,66,51,59,55,50,97,72,42,30.12,30.07,30.04,10,10,8,15,7,20,0.01,0,,240
2013-9-5,77,66,57,60,52,42,90,67,33,30.23,30.17,30.09,10,10,10,13,5,,0.00,1,,20
2013-9-6,75,62,48,52,47,42,93,61,31,30.27,30.20,30.09,10,10,10,7,4,,0.00,0,,92
2013-9-7,84,68,53,65,57,46,83,67,44,30.08,30.00,29.91,10,10,10,16,6,24,0.00,3,,214
2013-9-8,73,68,61,66,62,54,94,79,68,30.05,30.00,29.91,10,8,4,17,6,,0.00,5,,46
2013-9-9,88,74,59,68,61,52,87,70,48,30.04,29.98,29.91,10,10,10,14,7,,0.00,2,,165
2013-9-10,96,84,73,72,68,63,87,62,33,30.05,30.01,29.94,10,9,5,18,9,25,0.00,1,Thunderstorm,225
2013-9-11,93,82,70,70,65,60,87,62,33,30.09,30.01,29.94,10,10,8,15,8,21,0.00,1,,230
2013-9-12,81,71,60,70,64,54,97,80,39,29.95,29.91,29.81,10,8,3,14,7,22,0.23,5,Rain,282
2013-9-13,64,56,48,53,46,40,89,71,50,30.12,30.03,29.94,10,10,10,15,10,22,0.00,3,,337
2013-9-14,69,55,41,46,42,39,93,65,33,30.19,30.14,30.10,10,10,9,7,3,,0.00,0,,84
2013-9-15,73,58,44,56,48,41,93,70,39,30.14,30.09,30.01,10,9,5,17,6,23,0.23,3,Rain,183
2013-9-16,69,60,52,56,52,45,100,78,57,30.33,30.24,30.10,10,8,4,13,6,24,0.01,6,,12
2013-9-17,71,58,46,50,45,38,93,66,30,30.36,30.30,30.20,10,10,2,10,6,,0.00,0,,77
2013-9-18,79,66,53,59,53,48,87,69,40,30.18,30.10,30.02,10,10,9,10,5,,0.00,0,,141
2013-9-19,80,70,62,66,65,59,100,82,65,30.07,30.02,29.94,10,6,2,13,8,20,0.00,4,,172
2013-9-20,88,78,66,70,68,64,100,87,49,29.94,29.82,29.73,10,4,0,23,10,33,2.36,5,Fog-Rain-Thunderstorm,224
2013-9-21,72,63,53,66,58,44,100,83,40,29.86,29.74,29.69,10,8,3,18,7,24,0.29,5,Rain,294
2013-9-22,64,56,48,47,43,40,93,69,45,30.04,29.97,29.87,10,10,10,13,5,17,0.00,2,,2
2013-9-23,61,52,42,47,44,41,100,77,54,30.15,30.11,30.05,10,10,10,7,3,,0.00,4,,82
2013-9-24,68,56,43,50,45,41,97,72,43,30.13,30.05,29.97,10,10,6,10,5,,0.00,0,,87
2013-9-25,72,60,50,55,51,48,96,76,45,29.97,29.94,29.89,10,9,5,14,6,,0.00,0,,56
2013-9-26,77,63,51,59,52,45,100,77,33,30.11,30.04,29.95,10,7,0,12,5,,0.01,1,Fog,40
2013-9-27,75,62,48,54,50,45,90,69,40,30.20,30.15,30.11,10,10,8,13,6,16,0.00,0,,63
2013-9-28,80,65,51,56,51,49,93,67,35,30.18,30.11,30.03,10,10,7,12,5,16,0.01,0,,144
2013-9-29,66,62,57,61,59,52,100,89,73,30.03,29.99,29.97,10,6,2,12,7,,0.14,7,Rain,191
2013-9-30,73,65,57,61,58,56,100,86,57,30.03,29.98,29.91,10,6,0,7,3,,0.00,6,Fog,258